sat.trackr.live / text

‹ back to catalog

STARLINK-5625

NORAD 55368 · 2023-013AP

PAYLOAD ACTIVE UNKNOWN

§ Identity

Operator
Country
US
Launch date
2023-01-26
Launch site
AFETR
Launch vehicle
Mass (kg)
RCS (m²)

Purposes: comms

External: N2YO · Heavens-Above · Gunter

§ Orbital elements

Epoch: 2026-05-25T04:16:37.834752Z

Period
94.27 min
Inclination
43.0049°
Eccentricity
0.0001959
Mean motion
15.27576379 rev/d
Perigee alt
481.7 km
Apogee alt
484.4 km
Semi-major
6,861.2 km
B*
7.2199e-6
RAAN
216.5304°
Arg perigee
276.9267°
Mean anomaly
83.1361°
Rev number
18,354

§ Raw data

STARLINK-56251 55368U 23013AP  26145.17821568 -.00000064  00000+0  72199-5 0  99952 55368  43.0049 216.5304 0001959 276.9267  83.1361 15.27576379183548

JSON: /api/v1/satellites/55368 · /tle

For live sub-satellite position, see the globe view (requires WebGL).

§ Visibility from observer

Set your observer location to see the next 7 days of passes ≥ 10°. The values pass through the URL so the page stays shareable.

No JS? Fill the form by hand. The geolocation button needs JavaScript.